#timestamp,LO_Frequency,Hit 
1502089215.5,286046952.2,N
1502089235.3,286046954.2,N
1502089255.2,286046950.2,N
1502089275.9,286046950.5,N
1502089295.7,286046951.5,N
1502089315.6,286046951.4,N
1502089335.4,286046948.5,N
1502089355.2,286046950.7,N
1502089375.1,286046950.5,N
1502089376.0,286046950.5,N
1502089395.8,286046950.7,N
1502089415.6,286046950.7,N
1502089435.4,286046950.2,N
1502089455.3,286046948.5,N
1502089475.1,286046949.5,N
1502089495.8,286046947.3,N
1502089515.7,286046949.8,N
1502089535.5,286046946.9,N
1502089555.3,286046949.7,N
1502089575.2,286046946.9,N
1502089595.9,286046946.9,N
1502089615.7,286046949.4,N
1502089635.6,286046949.6,N
1502089655.4,286046947.0,N
1502089675.2,286046947.3,N
1502089695.1,286046948.0,N
1502089696.0,286046948.0,N
1502089715.8,286046947.5,N
1502089735.6,286046947.4,N
1502089755.5,286046946.9,N
1502089775.3,286046949.2,N
1502089795.1,286046949.7,N
1502089815.8,286046948.1,N
1502089835.7,286046949.6,N
1502089855.5,286046948.1,N
1502089875.3,286046948.4,N
1502089895.2,286046945.3,N
1502089915.9,286046946.3,N
1502089935.7,286046948.3,N
1502089955.6,286046946.4,N
1502089975.4,286046945.6,N
1502089995.2,286046945.5,N
1502090015.1,286046946.1,N
1502090016.0,286046946.1,N
1502090035.8,286046945.5,N
1502090055.6,286046947.7,N
1502090075.5,286046945.8,N
1502090095.3,286046946.6,N
1502090115.1,286046945.5,N
1502090135.8,286046948.0,N
1502090155.7,286046945.4,N
1502090175.5,286046948.2,N
1502090195.3,286046947.6,N
1502090215.2,286046947.1,N
1502090235.9,286046946.2,N
1502090255.7,286046945.7,N
1502090275.6,286046945.5,N
1502090295.4,286046946.3,N
1502090315.2,286046946.0,N
1502090335.1,286046947.9,N
1502090336.0,286046947.9,N
1502090355.8,286046946.5,N
1502090375.6,286046946.4,N
1502090395.5,286046943.8,N
1502090415.3,286046946.8,N
1502090435.1,286046945.6,N
1502090455.8,286046945.8,N
1502090475.7,286046947.9,N
1502090495.5,286046946.4,N
1502090515.3,286046945.8,N
1502090535.2,286046946.5,N
1502090555.9,286046944.1,N
1502090575.7,286046948.4,N
1502090595.6,286046945.8,N
1502090615.4,286046946.6,N
1502090635.2,286046943.7,N
1502090655.1,286046943.9,N
1502090656.0,286046943.9,N
1502090675.8,286046946.6,N
1502090695.6,286046946.1,N
1502090715.5,286046946.7,N
1502090735.3,286046944.4,N
1502090755.1,286046948.4,N
1502090775.8,286046948.4,N
1502090795.7,286046944.0,N
1502090815.5,286046944.2,N
1502090835.3,286046946.3,N
1502090855.2,286046948.1,N
1502090875.9,286046946.0,N
1502090895.7,286046944.0,N
1502090915.6,286046945.4,N
1502090935.4,286046943.9,N
1502090955.2,286046945.4,N
1502090975.1,286046946.2,N
1502090976.0,286046946.2,N
1502090995.8,286046944.1,N
1502091015.6,286046944.9,N
1502091035.4,286046944.4,N
1502091055.3,286046944.0,N
1502091075.1,286046945.5,N
1502091095.8,286046946.3,N
1502091115.7,286046945.0,N
1502091135.5,286046946.7,N
1502091155.3,286046946.6,N
1502091175.2,286046945.8,N
1502091195.9,286046946.5,N
1502091215.7,286046943.8,N
1502091235.6,286046946.3,N
1502091255.4,286046944.5,N
1502091275.2,286046944.6,N
1502091295.1,286046944.1,N
1502091296.0,286046944.1,N
1502091315.8,286046944.4,N
1502091335.6,286046942.3,N
1502091355.4,286046943.0,N
1502091375.3,286046943.1,N
1502091395.1,286046943.2,N
1502091415.8,286046944.7,N
1502091435.7,286046942.2,N
1502091455.5,286046944.9,N
1502091475.3,286046944.9,N
1502091495.2,286046944.6,N
1502091515.9,286046945.7,N
1502091535.7,286046944.5,N
1502091555.6,286046942.3,N
1502091575.4,286046942.2,N
1502091595.2,286046942.2,N
1502091615.1,286046942.4,N
1502091616.0,286046942.4,N
1502091635.8,286046942.2,N
1502091655.6,286046944.3,N
1502091675.4,286046944.4,N
1502091695.3,286046944.2,N
1502091715.1,286046944.6,N
1502091735.8,286046942.5,N
1502091755.7,286046942.5,N
1502091775.5,286046943.0,N
1502091795.3,286046942.8,N
1502091815.2,286046943.0,N
1502091835.9,286046945.2,N
1502091855.7,286046942.8,N
1502091875.6,286046942.3,N
1502091895.4,286046940.5,N
1502091915.2,286046943.6,N
1502091935.1,286046941.9,N
1502091936.0,286046941.9,N
1502091955.8,286046941.5,N
1502091975.6,286046938.9,N
1502091995.4,286046939.0,N
1502092015.3,286046941.6,N
1502092035.1,286046941.1,N
1502092055.8,286046941.6,N
1502092075.7,286046941.4,N
1502092095.5,286046941.9,N
1502092115.3,286046939.0,N
1502092135.2,286046939.4,N
1502092155.9,286046941.3,N
1502092175.7,286046939.5,N
1502092195.6,286046941.0,N
1502092215.4,286046944.8,N
1502092235.2,286046941.3,N
1502092255.0,286046942.4,N
1502092256.0,286046942.4,N
1502092275.8,286046941.0,N
1502092295.6,286046940.8,N
1502092315.4,286046940.7,N
1502092335.3,286046939.6,N
1502092355.1,286046939.9,N
1502092375.8,286046941.6,N
1502092395.7,286046941.9,N
1502092415.5,286046939.5,N
1502092435.3,286046943.3,N
1502092455.2,286046943.0,N
1502092475.9,286046941.1,N
1502092495.7,286046941.6,N
1502092515.6,286046941.0,N
1502092535.4,286046941.4,N
1502092555.2,286046939.5,N
1502092575.0,286046941.5,N
1502092576.0,286046941.5,N
1502092595.8,286046942.0,N
1502092615.6,286046940.5,N
1502092635.4,286046939.2,N
1502092655.3,286046939.1,N
1502092675.1,286046941.9,N
1502092695.8,286046941.6,N
1502092715.7,286046939.8,N
1502092735.5,286046939.7,N
1502092755.3,286046940.1,N
1502092775.2,286046940.0,N
1502092795.9,286046937.7,N
